Lær å fly hos oss!

Oslo Flyveklubb har i mange år utdannet flygere til privatflygersetifikat PPL(A). Skolen har godkjenning for å drive utdanning til teoriundervisning til PPL(A), privatflygersertifikat PPL (A) og mørkeflyging.

Gi bort en flytur i gave

På en introduksjonstur vil kandidaten være med på forberedelser til, og gjennomføring av en flytur på en times varighet med en av våre instruktører.

Hvor vi holder til?

Flyplassen ligger i Lillestrøm 10 minutter med tog fra Oslo. Følg storgata fra Lillestrøms sentrum så vill man se plassen på venstre side.
Metar/TAF Gardermoen:

ENGM 240220Z 00000KT CAVOK 16/14 Q1018

TAF ENGM 231700Z 2318/2418 16005KT 9999 FEW030 PROB30 2400/2405 0500 FG VV002 PROB40 TEMPO 2412/2418 TSRA SCT040 FEW050CB